Probability
0 0 0 0 0 0 0 0 0 0 0 0 0 0 0 0 0 0 0 0 0 0 0 0 0 0 0 0 0 0 0 0 0 0 0 0 0 0 0 0 0 0 0 0
0 0 0 0 0 0 0 0 0 0 0 0 0 0 0 0 0 0 0 0 0 0 0 0 0 0 0 0 0 0 0 0 0 0 0 0 0 0 0 0 0 0 0 0
0 0 0 0 0 0 0 0 0 0 0 0 0 0 0 0 0 0 0 0 0 0 0 0 0 0 0 0 0 0 0 0 0 0 0 0 0 0 0 0 0 0 0 0
0 0 0 0 0 0 0 0 0 0 0 0 0 0 0 0 0 0 0 0 0 0 0 0 0 0 0 0 0 0 0 0 0 0 0 0 0 0 0 0 0 0 0 0
0 0 0 0 0 0 0 0 0 0 0 0 0 0 0 0 0 0 0 0 0 0 0 0 0 0 0 0 0 0 0 0 0 0 0 0 0 0 0 0 0 0 0 0
0 0 0 0 0 0 0 0 0 0 0 0 0 0 0 0 0 0 0 0 0 0 0 0 0 0 0 0 0 0 0 0 0 0 0 0 0 0 0 0 0 0 0 0
0 0 0 0 0 0 0 0 0 0 0 0 0 0 0 0 0 0 0 0 0 0 0 0 0 0 0 0 0 0 0 0 0 0 0 0 0 0 0 0 0 0 0 0
0 0 0 0 0 0 0 0 0 0 0 0 0 0 0 0 0 0 0 0 0 0 0 0 0 0 0 0 0 0 0 0 0 0 0 0 0 0 0 0 0 0 0 0
0 0 0 0 0 0 0 0 0 0 0 0 0 0 0 0 0 0 0 0 0 0 0 0 0 0 0 0 0 0 0 0 0 0 0 0 0 0 0 0 0 0 0 0
0 0 0 0 0 0 0 0 0 0 0 0 0 0 0 0 0 0 0 0 0 0 0 0 0 0 0 0 0 0 0 0 0 0 0 0 0 0 0 0 0 0 0 0
0 0 0 0 0 0 0 0 0 0 0 0 0 0 0 0 0 0 0 0 0 0 0 0 0 0 0 0 0 0 0 0 0 0 0 0 0 0 0 0 0 0 0 0
0 0 0 0 0 0 0 0 0 0 0 0 0 0 0 0 0 0 0 0 0 0 0 0 0 0 0 0 0 0 0 0 0 0 0 0 0 0 0 0 0 0 0 0
0 0 0 0 0 0 0 0 0 0 0 0 0 0 0 0 0 0 0 0 0 0 0 0 0 0 0 0 0 0 0 0 0 0 0 0 0 0 0 0 0 0 0 0
0 0 0 0 0 0 0 0 0 0 0 0 0 0 0 0 0 0 0 0 0 0 0 0 0 0 0 0 0 0 0 0 0 0 0 0 0 0 0 0 0 0 0 0
0 0 0 0 0 0 0 0 0 0 0 0 0 0 0 0 0 0 0 0 0 0 0 0 0 0 0 0 0 0 0 0 0 0 0 0 0 0 0 0 0 0 0 0
0 0 0 0 0 0 0 0 0 0 0 0 0 0 0 0 0 0 0 0 0 0 0 0 0 0 0 0 0 0 0 0 0 0 0 0 0 0 0 0 0 0 0 0
0 0 0 0 0 0 0 0 0 0 0 0 0 0 0 0 0 0 0 0 0 0 0 0 0 0 0 0 0 0 0 0 0 0 0 0 0 0 0 0 0 0 0 0
0 0 0 0 0 0 0 0 0 0 0 0 0 0 0 0 0 0 0 0 0 0 0 0 0 0 0 0 0 0 0 0 0 0 0 0 0 0 0 0 0 0 0 0
0 0 0 0 0 0 0 0 0 0 0 0 0 0 0 0 0 0 0 0 0 0 0 0 0 0 0 0 0 0 0 0 0 0 0 0 0 0 0 0 0 0 0 0
0 0 0 0 0 0 0 0 0 0 0 0 0 0 0 0 0 0 0 0 0 0 0 0 0 0 0 0 0 0 0 0 0 0 0 0 0 0 0 0 0 0 0 0
0 0 0 0 0 0 0 0 0 0 0 0 0 0 0 0 0 0 0 0 0 0 0 0 0 0 0 0 0 0 0 0 0 0 0 0 0 0 0 0 0 0 0 0
0 0 0 0 0 0 0 0 0 0 0 0 0 0 0 0 0 0 0 0 0 0 0 0 0 0 0 0 0 0 0 0 0 0 0 0 0 0 0 0 0 0 0 0
0 0 0 0 0 0 0 0 0 0 0 0 0 0 0 0 0 0 0 0 0 0 0 0 0 0 0 0 0 0 0 0 0 0 0 0 0 0 0 0 0 0 0 0
0 0 0 0 0 0 0 0 0 0 0 0 0 0 0 0 0 0 0 0 0 0 0 0 0 0 0 0 0 0 0 0 0 0 0 0 0 0 0 0 0 0 0 0
0 0 0 0 0 0 0 0 0 0 0 0 0 0 0 0 0 0 0 0 0 0 0 0 0 0 0 0 0 0 0 0 0 0 0 0 0 0 0 0 0 0 0 0
0 0 0 0 0 0 0 0 0 0 0 0 0 0 0 0 0 0 0 0 0 0 0 0 0 0 0 0 0 0 0 0 0 0 0 0 0 0 0 0 0 0 0 0
Height
5711 5707 5701 5696 5690 5684 5677 5672 5666 5660 5652 5646 5640 5634 5628 5622 5617 5612 5609 5607 5605 5603 5602 5600 5599 5597 5597 5598 5600 5603 5607 5612 5618 5625 5632 5640 5647 5655 5664 5672 5681 5689 5697 5706
5705 5700 5694 5688 5682 5676 5670 5664 5658 5653 5645 5638 5632 5627 5620 5614 5609 5604 5600 5597 5595 5594 5592 5590 5587 5585 5584 5585 5586 5588 5593 5598 5603 5610 5618 5625 5633 5641 5649 5658 5666 5675 5684 5692
5698 5694 5687 5681 5675 5670 5663 5656 5650 5644 5638 5631 5624 5620 5614 5607 5601 5596 5592 5589 5586 5583 5582 5579 5576 5574 5573 5573 5574 5575 5580 5585 5590 5596 5603 5610 5617 5625 5634 5643 5652 5661 5670 5679
5692 5686 5681 5675 5668 5662 5657 5650 5642 5635 5629 5623 5616 5610 5608 5601 5595 5589 5585 5581 5578 5575 5572 5569 5566 5564 5563 5563 5563 5564 5568 5573 5578 5583 5589 5596 5603 5612 5621 5630 5639 5649 5658 5667
5685 5680 5674 5668 5662 5655 5648 5642 5635 5628 5621 5616 5608 5602 5600 5593 5588 5583 5578 5574 5570 5566 5563 5560 5557 5554 5553 5552 5553 5555 5558 5562 5566 5571 5577 5584 5591 5599 5608 5617 5627 5636 5646 5654
5679 5673 5667 5661 5655 5648 5641 5635 5629 5622 5615 5610 5603 5596 5592 5585 5580 5575 5570 5566 5562 5558 5555 5551 5548 5545 5544 5543 5544 5546 5549 5552 5556 5560 5566 5572 5579 5587 5595 5604 5615 5624 5634 5643
5673 5667 5660 5654 5649 5642 5635 5628 5621 5614 5609 5604 5597 5590 5586 5578 5572 5567 5563 5558 5554 5550 5547 5543 5540 5538 5537 5536 5537 5539 5541 5543 5546 5550 5555 5562 5569 5577 5584 5594 5604 5613 5623 5633
5664 5660 5653 5647 5641 5634 5627 5621 5614 5607 5601 5597 5592 5585 5582 5573 5566 5560 5556 5552 5548 5544 5540 5536 5533 5531 5530 5529 5530 5531 5532 5534 5537 5541 5547 5553 5560 5567 5575 5584 5594 5604 5613 5623
5656 5652 5646 5640 5633 5628 5621 5614 5608 5601 5593 5589 5585 5580 5575 5568 5561 5555 5550 5546 5541 5538 5534 5530 5527 5525 5523 5522 5522 5523 5524 5527 5530 5534 5539 5545 5552 5559 5567 5576 5585 5595 5604 5613
5649 5645 5640 5634 5628 5621 5615 5608 5601 5593 5585 5580 5577 5573 5569 5561 5554 5549 5544 5539 5535 5532 5528 5524 5521 5518 5516 5515 5515 5516 5517 5520 5523 5527 5532 5537 5544 5551 5559 5568 5577 5586 5595 5604
5642 5638 5634 5627 5621 5615 5609 5602 5594 5587 5581 5573 5566 5569 5562 5555 5547 5542 5537 5532 5528 5524 5521 5517 5514 5512 5510 5509 5509 5509 5511 5513 5516 5520 5525 5530 5537 5544 5551 5560 5569 5577 5586 5596
5634 5630 5626 5621 5615 5608 5602 5595 5589 5582 5576 5567 5559 5562 5556 5548 5540 5535 5530 5525 5521 5517 5514 5511 5508 5506 5504 5503 5503 5504 5505 5507 5510 5514 5518 5524 5530 5536 5545 5553 5561 5569 5578 5588
5626 5622 5617 5614 5609 5602 5595 5588 5582 5575 5569 5562 5554 5554 5548 5540 5534 5529 5523 5519 5514 5510 5507 5504 5502 5500 5499 5498 5497 5498 5499 5501 5504 5508 5512 5517 5523 5530 5538 5545 5554 5562 5571 5580
5617 5614 5610 5606 5600 5593 5588 5582 5575 5568 5561 5555 5550 5544 5542 5534 5527 5523 5517 5512 5508 5504 5500 5497 5496 5494 5493 5493 5492 5493 5494 5496 5498 5502 5507 5512 5518 5525 5532 5539 5547 5555 5564 5572
5608 5606 5602 5597 5592 5586 5581 5576 5569 5561 5554 5548 5543 5537 5533 5527 5521 5516 5511 5506 5502 5497 5494 5491 5490 5489 5488 5487 5488 5488 5489 5491 5494 5497 5503 5508 5513 5520 5526 5533 5541 5549 5557 5565
5600 5596 5592 5589 5584 5577 5573 5569 5562 5555 5548 5541 5535 5531 5526 5519 5514 5509 5503 5499 5494 5490 5487 5485 5483 5483 5482 5482 5482 5483 5484 5487 5490 5494 5499 5504 5509 5514 5520 5527 5535 5543 5551 5558
5591 5586 5581 5578 5574 5568 5565 5561 5553 5547 5541 5534 5528 5524 5517 5512 5507 5501 5496 5491 5487 5483 5480 5478 5476 5476 5476 5476 5477 5478 5480 5482 5486 5489 5494 5499 5504 5509 5514 5521 5529 5537 5544 5551
5582 5577 5570 5566 5563 5558 5559 5550 5544 5538 5534 5526 5520 5515 5509 5504 5499 5494 5489 5484 5480 5477 5474 5471 5470 5469 5469 5470 5471 5472 5474 5477 5480 5483 5488 5492 5498 5502 5508 5515 5523 5530 5537 5543
5573 5567 5561 5556 5550 5547 5549 5541 5533 5528 5526 5519 5512 5506 5501 5496 5491 5488 5482 5477 5473 5470 5467 5465 5463 5463 5463 5463 5464 5466 5468 5470 5473 5477 5481 5486 5491 5496 5503 5509 5516 5523 5530 5536
5563 5558 5553 5546 5539 5536 5538 5530 5522 5518 5515 5511 5504 5498 5492 5487 5483 5481 5475 5470 5466 5462 5460 5458 5457 5456 5456 5456 5457 5460 5462 5464 5467 5471 5475 5480 5484 5490 5496 5502 5509 5516 5522 5529
5552 5547 5543 5536 5528 5526 5527 5520 5513 5508 5506 5499 5494 5489 5483 5478 5474 5470 5466 5461 5458 5455 5453 5451 5450 5449 5449 5449 5450 5452 5455 5458 5461 5464 5468 5473 5478 5483 5489 5496 5502 5508 5515 5522
5541 5537 5532 5526 5520 5520 5515 5509 5504 5500 5494 5489 5484 5479 5474 5469 5465 5461 5456 5453 5449 5447 5445 5443 5442 5441 5441 5442 5443 5445 5448 5450 5454 5457 5462 5466 5471 5476 5482 5489 5495 5502 5508 5515
5531 5528 5521 5517 5515 5510 5504 5498 5493 5489 5484 5480 5475 5470 5465 5460 5456 5452 5448 5444 5441 5439 5436 5434 5433 5433 5434 5435 5436 5438 5440 5443 5447 5450 5454 5459 5464 5469 5475 5481 5488 5494 5501 5508
5520 5516 5510 5506 5504 5499 5493 5488 5483 5479 5474 5470 5465 5460 5455 5451 5447 5443 5439 5436 5433 5430 5428 5426 5425 5425 5426 5427 5429 5431 5433 5436 5440 5444 5447 5452 5457 5462 5468 5474 5480 5487 5494 5501
5509 5503 5498 5494 5493 5488 5484 5478 5474 5469 5464 5460 5455 5451 5446 5441 5438 5434 5431 5428 5425 5422 5420 5419 5418 5417 5418 5420 5422 5424 5427 5430 5433 5437 5441 5445 5450 5455 5461 5467 5473 5480 5487 5494
5499 5492 5487 5484 5481 5476 5473 5469 5464 5460 5455 5450 5446 5441 5437 5432 5429 5425 5422 5419 5417 5415 5413 5411 5411 5411 5411 5413 5415 5417 5420 5423 5426 5430 5434 5438 5443 5448 5454 5461 5467 5473 5480 5487
Wind_Speed
30 31 32 34 35 36 37 38 39 39 40 41 41 41 39 36 36 37 37 37 39 39 40 40 42 43 46 47 49 51 52 56 58 58 58 59 60 63 64 63 62 61 61 61
31 32 33 35 36 37 38 39 39 38 39 40 40 39 36 34 34 35 35 35 36 35 35 36 38 40 42 43 45 48 50 53 55 56 57 57 59 61 63 63 62 61 61 61
32 33 35 36 37 37 38 40 40 40 39 39 40 37 34 33 33 34 34 34 33 33 33 34 36 37 39 40 42 44 48 49 51 54 57 57 58 60 62 63 62 61 61 62
34 34 35 36 37 38 38 39 40 41 41 40 40 38 32 32 33 33 33 33 32 32 32 32 33 34 35 37 39 41 43 46 47 51 54 56 57 58 60 62 61 61 61 62
35 35 36 37 37 38 40 40 40 41 40 39 37 38 34 33 33 32 32 31 30 31 31 30 32 33 34 34 36 38 39 43 45 48 51 55 56 56 58 61 62 59 59 61
35 36 37 37 38 39 40 40 40 40 39 38 37 37 35 34 33 33 32 31 30 29 30 30 30 31 31 31 32 35 38 40 43 45 48 51 54 55 56 59 60 58 58 59
35 36 36 37 37 38 40 41 41 41 40 38 38 37 35 35 34 33 32 31 31 30 29 28 27 27 29 29 30 31 34 37 42 44 46 50 52 53 54 56 56 56 57 58
37 36 36 37 38 39 40 41 41 42 41 39 37 36 35 34 33 33 32 32 31 30 29 28 27 28 28 28 29 30 32 36 39 41 45 48 49 51 53 55 55 54 53 55
37 36 37 37 38 39 40 40 41 42 42 41 39 38 34 33 33 32 32 32 31 30 30 29 27 28 28 29 29 29 31 35 37 39 42 46 47 48 51 53 52 51 51 54
36 37 37 37 37 38 40 40 41 42 43 44 42 39 36 35 33 32 32 32 32 30 30 29 27 27 26 28 29 28 30 33 35 36 39 44 45 46 50 53 51 51 49 51
37 37 37 38 38 38 39 39 40 41 42 44 45 40 37 36 34 33 34 34 33 32 31 29 27 26 26 27 27 27 28 31 34 35 38 42 43 45 49 51 52 51 48 50
38 38 38 38 38 39 39 40 40 41 42 43 45 41 37 36 35 35 34 33 33 32 30 28 27 26 25 25 26 26 27 30 33 35 37 41 42 44 46 49 50 49 48 49
38 39 39 38 39 40 40 40 41 42 43 42 43 41 37 36 35 35 34 33 32 32 30 27 26 26 25 24 24 24 27 29 31 34 35 38 41 43 44 47 47 47 48 48
39 39 39 39 39 40 40 40 40 41 42 42 41 40 37 36 35 34 33 32 31 31 29 27 26 26 25 24 24 25 27 28 30 32 34 34 38 41 42 44 46 47 47 46
40 40 40 39 39 40 40 40 39 40 41 42 41 40 38 36 35 34 33 32 31 30 28 26 26 26 25 24 24 25 26 27 29 33 35 34 34 39 40 41 43 45 46 46
40 42 41 40 40 41 41 39 39 40 40 41 41 39 37 36 35 34 33 32 31 30 28 26 25 25 24 24 23 24 25 26 27 31 34 36 36 37 38 40 42 44 44 45
41 42 43 42 41 42 41 39 39 40 41 41 41 39 37 35 35 34 33 32 31 29 28 26 25 24 24 24 24 25 25 27 28 30 33 35 36 37 38 40 41 43 44 45
42 43 44 45 44 43 41 41 41 41 40 40 41 39 38 36 35 34 33 32 31 29 27 26 24 24 24 26 26 26 26 27 29 31 33 36 37 37 38 40 42 43 43 43
42 43 45 46 47 46 42 42 42 41 39 39 39 39 39 37 35 33 32 32 32 29 27 26 24 24 25 27 27 27 26 27 28 29 32 35 36 37 38 40 42 42 41 42
43 44 45 47 47 47 44 43 43 42 40 39 39 39 38 37 35 32 32 32 31 29 27 26 25 24 24 26 27 27 28 27 27 28 31 33 35 36 37 39 41 41 40 40
44 45 45 46 47 47 44 43 43 42 41 41 40 39 39 37 36 34 33 31 30 28 28 27 26 24 25 26 27 27 28 28 28 29 31 33 34 35 37 38 39 41 40 41
45 45 45 46 47 45 43 43 42 42 41 41 40 40 39 37 35 34 33 31 30 29 28 28 27 26 26 27 27 27 28 28 28 29 31 33 33 34 35 37 38 40 40 40
45 45 46 46 45 43 42 42 42 41 41 40 40 40 39 37 35 34 33 32 30 29 28 27 26 26 26 26 27 27 28 28 28 29 31 32 33 34 35 36 37 38 39 40
45 45 45 45 42 41 41 42 41 41 41 40 40 40 39 37 35 34 33 32 30 29 27 25 25 24 24 26 27 27 27 28 27 28 30 32 34 35 36 36 36 38 38 39
44 44 44 43 41 40 40 41 41 41 41 40 40 40 38 36 35 34 32 30 29 28 26 24 24 23 23 24 26 27 27 27 26 27 28 30 33 34 34 35 35 36 37 37
41 42 42 42 41 42 41 40 41 41 40 40 40 39 37 35 34 33 31 29 28 27 25 23 23 22 22 23 25 26 26 26 26 27 28 30 32 33 34 35 36 36 36 37
Wind_Direction
322 320 319 320 320 320 319 320 321 321 318 314 313 313 310 306 301 297 290 285 281 277 274 271 271 269 265 260 254 249 245 241 238 235 233 233 232 231 230 228 228 229 229 229
323 321 321 321 321 322 321 322 323 322 320 316 316 316 312 307 303 300 296 290 286 280 278 277 274 272 267 261 256 249 244 241 237 234 231 231 230 229 228 227 226 227 227 226
323 323 323 323 322 322 323 322 323 323 322 320 318 317 314 307 306 304 301 296 292 287 284 281 278 274 268 263 257 250 242 239 237 234 231 229 229 228 227 225 224 225 226 225
324 323 323 324 322 322 323 323 323 323 323 324 323 320 317 311 308 306 303 300 295 292 290 286 280 274 269 264 257 249 242 237 236 234 230 228 227 227 226 224 222 223 224 225
322 323 323 324 324 323 324 324 323 322 323 324 324 322 323 316 311 308 305 303 300 295 294 290 283 276 270 265 256 248 242 238 236 235 232 228 227 227 225 223 221 221 223 224
321 321 322 323 324 324 324 325 323 322 324 326 324 323 324 319 316 312 308 306 304 300 296 292 284 277 271 266 258 251 245 240 237 234 231 229 227 225 223 221 221 221 222 222
320 321 321 322 324 324 324 325 325 325 326 327 326 324 326 321 318 314 310 308 307 304 300 295 285 277 270 264 256 250 247 242 234 230 229 227 226 223 222 220 220 220 220 220
320 321 322 323 324 325 325 326 326 326 326 327 326 326 326 323 318 314 311 309 308 305 301 297 290 278 269 263 257 252 249 241 233 230 228 225 225 224 221 219 220 219 219 219
320 321 322 323 324 325 325 325 324 324 324 325 326 325 324 323 317 313 310 308 307 305 300 295 289 280 270 262 256 250 246 239 236 233 228 226 225 225 222 219 219 219 220 219
318 318 320 321 322 322 324 324 324 324 323 323 325 326 326 323 318 313 309 306 303 303 300 293 286 278 269 261 257 253 245 239 237 234 228 225 223 224 221 217 217 216 219 219
316 317 318 319 321 322 323 323 324 322 321 321 322 326 326 322 317 312 309 306 302 300 298 292 285 277 269 260 254 249 245 240 237 233 229 224 222 222 219 217 217 216 218 219
314 315 317 318 319 320 321 322 322 321 320 319 319 324 323 320 317 314 311 308 304 302 298 291 284 275 266 260 255 251 247 242 236 231 227 224 221 218 215 216 215 218 219 218
312 314 315 317 318 319 319 319 319 318 317 318 318 321 321 317 315 314 312 310 306 301 296 290 283 276 268 260 256 253 247 241 233 228 225 223 220 215 214 215 215 217 217 217
310 312 313 315 317 317 317 317 317 316 316 317 318 318 319 315 313 312 310 309 305 301 294 287 281 274 270 264 259 255 247 239 233 228 222 217 217 215 215 216 217 215 214 215
308 309 311 312 314 314 314 316 316 316 316 316 318 317 318 314 312 311 309 307 303 299 294 285 279 273 268 264 260 257 250 242 233 226 219 218 217 215 215 217 216 214 214 215
307 307 308 310 311 311 312 315 315 315 315 315 316 317 315 313 312 311 309 305 303 299 293 286 278 271 265 261 259 253 247 238 230 227 223 221 220 216 216 216 215 215 216 218
304 306 308 309 310 309 312 315 314 313 313 314 314 316 314 312 312 311 308 305 303 299 292 285 277 269 264 259 256 250 243 234 229 228 225 223 223 220 219 216 214 215 218 221
303 305 307 308 308 309 314 313 312 311 312 313 313 313 313 312 311 310 307 303 301 298 291 284 277 269 263 257 253 247 245 239 233 231 229 225 224 223 220 216 215 217 219 220
302 303 305 306 307 309 312 312 312 311 312 312 311 312 311 310 308 307 303 300 298 296 291 285 278 271 263 257 252 247 246 240 234 232 230 226 224 223 221 218 217 218 219 218
301 302 304 306 306 308 312 311 310 310 311 311 310 311 311 310 308 307 301 297 295 292 289 284 279 271 263 256 253 248 245 241 236 233 230 227 225 223 221 220 219 219 217 216
299 301 303 304 305 307 310 310 309 309 310 310 310 311 310 309 308 307 304 299 294 290 287 283 277 271 262 256 253 249 243 241 238 235 231 228 226 225 223 220 219 218 217 217
298 300 301 303 303 307 308 306 307 307 308 308 309 310 309 308 306 305 303 300 295 291 287 282 275 270 262 255 251 247 242 240 238 234 230 228 227 225 222 219 218 218 217 216
296 299 299 300 303 304 304 304 305 306 306 307 307 308 307 306 305 304 302 299 295 292 289 282 276 269 261 253 248 244 240 239 238 233 230 228 226 225 223 220 218 217 216 214
295 297 297 299 301 301 301 302 303 303 304 306 307 307 306 304 303 303 300 298 294 292 289 282 276 269 260 251 245 242 239 236 235 233 230 228 226 224 222 218 217 217 216 215
295 296 297 298 299 298 299 300 300 301 303 304 305 305 304 302 301 301 299 296 293 290 286 280 275 268 258 250 243 240 240 237 233 232 231 228 224 220 218 216 215 215 215 215
295 295 296 298 298 298 299 298 299 300 301 302 303 303 302 300 299 298 297 295 292 288 281 277 272 266 259 251 243 240 239 238 235 233 230 226 221 218 217 215 213 212 212 213